Weather History for Cottonwood Pass, CO

Change the Weather History Date:

Tuesday, December 3, 2013

  Actual Average Record
Temperature  
Mean Temperature - -  
Max Temperature - - - ()
Min Temperature - - - ()
Moisture  
Dew Point -    
Average Humidity    
Maximum Humidity    
Minimum Humidity    
Precipitation  
Precipitation 0.00 in - - ()
Sea Level Pressure  
Sea Level Pressure 29.61 in    
Wind  
Wind Speed 7 mph (SW)    
Max Wind Speed 16 mph    
Max Gust Speed 39 mph    
Visibility 5 miles    
Events      
T = Trace of Precipitation, MM = Missing Value Source: NWS Daily Summary

Daily Weather History Graph

Daily Weather History Graph

Search for Another Location

Airport:

Trip Planner

Search our weather history database for the weather conditions in past years. The results will help you decide how hot, cold, wet, or windy it might be!

Date:

Astronomy

Dec. 03, 2013 Rise Set
Actual Time 7:06 AM MST 4:43 PM MST
Civil Twilight 6:36 AM MST 5:12 PM MST
Nautical Twilight 6:03 AM MST 5:45 PM MST
Astronomical Twilight 5:31 AM MST 6:17 PM MST
Moon 7:38 AM MST (12/3) 5:49 PM MST (12/3)
Length of Visible Light 10h 35m
Length of Day
9h 36m
New Moon, 1% of the Moon is Illuminated
Dec 3
New Moon
Dec 9
First Quarter
Dec 17
Full
Dec 25
Last Quarter
Jan 1
New

Hourly Weather History & Observations

Time (MST) Temp. Dew Point Humidity Pressure Visibility Wind Dir Wind Speed Gust Speed Precip Events Conditions
12:15 AM - - N/A% 29.76 in 10.0 mi WNW 16.1 mph 25.3 mph N/A   Mostly Cloudy
12:35 AM - - N/A% 29.76 in 10.0 mi NW 16.1 mph 25.3 mph N/A   Scattered Clouds
12:55 AM - - N/A% 29.76 in 10.0 mi WNW 13.8 mph 39.1 mph N/A   Mostly Cloudy
1:15 AM - - N/A% 29.76 in 10.0 mi WNW 16.1 mph 24.2 mph N/A   Overcast
1:35 AM - - N/A% 29.76 in 10.0 mi WNW 12.7 mph 27.6 mph N/A   Overcast
1:55 AM - - N/A% 29.75 in 10.0 mi WNW 15.0 mph 32.2 mph N/A   Mostly Cloudy
2:15 AM - - N/A% 29.74 in 10.0 mi NNW 9.2 mph 23.0 mph N/A   Scattered Clouds
2:35 AM - - N/A% 29.74 in 10.0 mi WNW 9.2 mph 26.5 mph N/A   Scattered Clouds
2:55 AM - - N/A% 29.73 in 10.0 mi NW 9.2 mph 24.2 mph N/A   Scattered Clouds
3:15 AM - - N/A% 29.72 in 10.0 mi WNW 8.1 mph 24.2 mph N/A   Mostly Cloudy
3:35 AM - - N/A% 29.72 in 10.0 mi West 10.4 mph 18.4 mph N/A   Mostly Cloudy
3:55 AM - - N/A% 29.71 in 10.0 mi West 9.2 mph 23.0 mph N/A   Mostly Cloudy
4:15 AM - - N/A% 29.69 in 10.0 mi WNW 8.1 mph 19.6 mph N/A   Mostly Cloudy
4:35 AM - - N/A% 29.69 in 10.0 mi NNW 6.9 mph - N/A   Mostly Cloudy
4:55 AM - - N/A% 29.69 in 10.0 mi NW 5.8 mph 16.1 mph N/A   Overcast
5:15 AM - - N/A% 29.69 in 10.0 mi North 5.8 mph - N/A   Overcast
5:35 AM - - N/A% 29.67 in 10.0 mi NW 6.9 mph - N/A   Overcast
5:54 AM - - N/A% 29.67 in 10.0 mi NW 3.5 mph - N/A   Overcast
6:14 AM - - N/A% 29.67 in 10.0 mi Calm Calm - N/A   Overcast
6:35 AM - - N/A% 29.67 in 10.0 mi SW 5.8 mph - N/A   Overcast
6:54 AM - - N/A% 29.67 in 10.0 mi South 3.5 mph - N/A   Overcast
7:14 AM - - N/A% 29.67 in 10.0 mi West 6.9 mph - N/A   Overcast
7:35 AM - - N/A% 29.67 in 10.0 mi Calm Calm - N/A   Overcast
7:55 AM - - N/A% 29.67 in 10.0 mi West 3.5 mph - N/A   Overcast
8:15 AM - - N/A% 29.67 in 5.0 mi WNW 3.5 mph - N/A   Unknown
8:35 AM - - N/A% 29.67 in 5.0 mi North 3.5 mph - N/A   Unknown
8:55 AM - - N/A% 29.66 in 7.0 mi West 3.5 mph - N/A   Overcast
9:15 AM - - N/A% 29.67 in 10.0 mi SE 4.6 mph - N/A   Overcast
9:34 AM - - N/A% 29.67 in 7.0 mi SSE 6.9 mph - N/A   Unknown
9:55 AM - - N/A% 29.67 in 4.0 mi ESE 8.1 mph - N/A   Unknown
10:14 AM - - N/A% 29.67 in 3.0 mi Calm Calm - N/A   Unknown
10:35 AM - - N/A% 29.67 in 1.5 mi Calm Calm - N/A   Unknown
10:55 AM - - N/A% 29.65 in 1.0 mi NE 4.6 mph - N/A   Unknown
11:15 AM - - N/A% 29.65 in 0.5 mi Calm Calm - N/A   Unknown
11:35 AM - - N/A% 29.63 in 0.5 mi SE 4.6 mph - N/A   Unknown
11:55 AM - - N/A% 29.61 in 0.2 mi Calm Calm - N/A   Unknown
12:14 PM - - N/A% 29.60 in 0.2 mi Calm Calm - N/A   Unknown
12:35 PM - - N/A% 29.60 in 0.2 mi Calm Calm - N/A   Unknown
12:55 PM - - N/A% 29.59 in 0.2 mi Calm Calm - N/A   Unknown
1:14 PM - - N/A% 29.59 in 0.5 mi Calm Calm - N/A   Unknown
1:35 PM - - N/A% 29.58 in 0.2 mi SSE 5.8 mph - N/A   Unknown
1:55 PM - - N/A% 29.57 in 0.5 mi ESE 3.5 mph - N/A   Unknown
2:15 PM - - N/A% 29.57 in 1.2 mi Calm Calm - N/A   Unknown
2:35 PM - - N/A% 29.56 in 1.0 mi Calm Calm - N/A   Unknown
2:55 PM - - N/A% 29.56 in 1.2 mi Calm Calm - N/A   Unknown
3:14 PM - - N/A% 29.56 in 2.5 mi SSE 4.6 mph - N/A   Unknown
3:35 PM - - N/A% 29.55 in 10.0 mi SE 3.5 mph - N/A   Overcast
3:55 PM - - N/A% 29.56 in 2.5 mi Calm Calm - N/A   Overcast
4:15 PM - - N/A% 29.56 in 0.2 mi Calm Calm - N/A   Unknown
4:35 PM - - N/A% 29.56 in 0.5 mi Calm Calm - N/A   Unknown
4:55 PM - - N/A% 29.56 in 1.8 mi Calm Calm - N/A   Unknown
5:15 PM - - N/A% 29.56 in 1.0 mi South 4.6 mph - N/A   Unknown
5:34 PM - - N/A% 29.55 in 1.0 mi SE 3.5 mph - N/A   Unknown
5:54 PM - - N/A% 29.55 in 1.2 mi Calm Calm - N/A   Unknown
6:15 PM - - N/A% 29.55 in 1.2 mi Calm Calm - N/A   Unknown
6:35 PM - - N/A% 29.55 in 1.0 mi Calm Calm - N/A   Unknown
6:55 PM - - N/A% 29.55 in 1.0 mi SSE 3.5 mph - N/A   Unknown
7:15 PM - - N/A% 29.54 in 1.0 mi SSE 4.6 mph - N/A   Unknown
7:35 PM - - N/A% 29.53 in 1.0 mi SE 5.8 mph - N/A   Unknown
7:54 PM - - N/A% 29.53 in 1.0 mi SE 4.6 mph - N/A   Unknown
8:14 PM - - N/A% 29.51 in 1.2 mi SSE 5.8 mph - N/A   Unknown
8:35 PM - - N/A% 29.50 in 1.2 mi SE 6.9 mph - N/A   Unknown
8:54 PM - - N/A% 29.49 in 1.0 mi SE 6.9 mph - N/A   Unknown
9:15 PM - - N/A% 29.48 in 0.2 mi SE 9.2 mph - N/A   Unknown
9:35 PM - - N/A% 29.49 in 0.5 mi Calm Calm - N/A   Unknown
9:55 PM - - N/A% 29.49 in 0.8 mi Calm Calm - N/A   Unknown
10:15 PM - - N/A% 29.48 in 0.8 mi Calm Calm - N/A   Unknown
10:35 PM - - N/A% 29.47 in 1.0 mi ESE 3.5 mph - N/A   Unknown
10:55 PM - - N/A% 29.46 in 1.0 mi Calm Calm - N/A   Unknown
11:15 PM - - N/A% 29.46 in 1.0 mi SE 4.6 mph - N/A   Unknown
11:35 PM - - N/A% 29.46 in 1.0 mi SSE 3.5 mph - N/A   Unknown
11:55 PM - - N/A% 29.45 in 1.2 mi Calm Calm - N/A   Unknown